HSU-SAT1

Last updated on Thu Mar 09 2023 00:02:06 GMT+0000 (Coordinated Universal Time)

1 53462U 98067UB 23067.10774029 .04653762 12014-4 15378-2 0 9999 2 53462 51.6158 85.3100 0002620 45.8635 314.2601 16.25127969 32545

Satellite not in orbit

HSU-SAT1